コプフ彗星

22P/Kopff (2015)

English version
Home page
Updated on December 31, 2016

---------------------------------------------------------------------

・ プロフィール

・ 写真集

・ 軌道要素

Epoch 2015 Oct. 25.0 TT = JDT 2457320.5
T 2015 Oct. 25.09553 TT                                 MPCW
q   1.5582300            (2000.0)            P               Q
n   0.15411698     Peri.  162.89933     +0.23891947     +0.96844883
a   3.4453689      Node   120.87259     -0.90029218     +0.24827397
e   0.5477320      Incl.    4.73711     -0.36385640     +0.02160787
P   6.40
From 3050 observations 2001 Dec. 19-2015 May 26, mean residual 0".6.
     Nongravitational parameters A1 = -0.06, A2 = -0.0620.

・ 星図

・ 光度変化

        H = 14.5  G = 0.15               [    ,-550]  (              〜2014年 4月23日)
        m1 = 5.3 + 5 logΔ + 21.0 log r  [-550, 525]  (2014年 4月23日〜2017年 4月 2日)
        H = 14.5  G = 0.15               [ 525,    ]  (2017年 4月 2日〜              )

---------------------------------------------------------------------

軌道要素はM.P.E.C. 2015-K139に掲載されたものです。
星図はステラナビゲータ Ver.8 (アストロアーツ) で作成したものです。
光度グラフはComet for Windowsで作成したものです。

---------------------------------------------------------------------

Copyright(C) Seiichi Yoshida (comet@aerith.net). All rights reserved.